Regional Weather Roundup
Issued by NWS

Home | Current Version | Previous Version | Text Only | Print | Product List | Glossary On
Versions: 1 2 3 4 5 6 7 8 9 10 11 12 13 14 15 16 17 18 19 20 21 22 23 24 25 26 27 28 29 30 31 32 33 34 35 36 37 38 39 40 41 42 43 44 45 46 47 48 49 50
000
ASUS43 KDTX 270510
RWRMI
MICHIGAN HOURLY REGIONAL WEATHER ROUNDUP
NATIONAL WEATHER SERVICE DETROIT/PONTIAC MI
100 AM EDT FRI APR 27 2018

NOTE: "FAIR" INDICATES FEW OR NO CLOUDS BELOW 12,000 FEET WITH NO
SIGNIFICANT WEATHER AND/OR OBSTRUCTION TO VISIBILITY.

MIZ047>049-052>055-059>063-066>070-074>076-081>083-270600-
SOUTHEAST LOWER MICHIGAN

CITY           SKY/WX    TMP DP  RH WIND       PRES   REMARKS
ADRIAN         FAIR      46  35  65 CALM      29.83F
ALMA           FAIR      42  36  80 CALM      29.80F
ANN ARBOR      FAIR      40  37  89 CALM      29.82F
BAD AXE        FAIR      45  34  64 S5        29.81S
CARO           FAIR      39  32  77 CALM      29.80S
DETROIT CITY   FAIR      46  38  73 SE3       29.83F
DETROIT        MOCLDY    48  38  68 SE3       29.83F
FLINT          FAIR      43  34  70 S5        29.81F
GROSSE ILE     FAIR      45  41  88 SE3       29.81F
HILLSDALE      FAIR      45  32  61 CALM      29.82F
HOWELL         FAIR      47  31  54 CALM      29.81F

CITY           SKY/WX    TMP DP  RH WIND       PRES   REMARKS
JACKSON        FAIR      47  33  58 CALM      29.81F
LAMBERTVILLE   FAIR      49  39  70 S3        29.82F
LANSING        FAIR      45  32  60 CALM      29.81F
LAPEER         FAIR      44  33  64 CALM      29.81F
MASON          FAIR      44  33  65 CALM      29.81F
MONROE         FAIR      46  39  74 CALM      29.81F
PONTIAC        FAIR      47  37  68 SE3       29.80F
PORT HOPE        N/A     47  35  63 SW6       29.77F
PORT HURON     FAIR      41  36  81 CALM      29.83F
TRI CITIES     FAIR      47  30  51 SW7       29.80F
MIDLAND        FAIR      40  33  75 CALM      29.79S
TROY           FAIR      49  37  65 CALM      29.84F
SAGINAW HB     FAIR      43  32  65 CALM      29.79F
$$
MIZ043>046-050>051-056>058-064>065-071>073-077>080-270600-
SOUTHWEST LOWER MICHIGAN

CITY           SKY/WX    TMP DP  RH WIND       PRES   REMARKS
BATTLE CREEK   FAIR      44  32  62 S3        29.82F
BENTON HARBOR  FAIR      45  27  49 SE3       29.81F
BIG RAPIDS     FAIR      39  29  66 CALM      29.78F
COLDWATER      FAIR      44  33  65 CALM      29.82F
FREMONT        FAIR      42  24  50 CALM      29.78F
HOLLAND        FAIR      45  28  51 S6        29.80F
GRAND RAPIDS   FAIR      42  29  59 S8        29.80F
IONIA          FAIR      41  32  68 S3        29.80F
KALAMAZOO      FAIR      45  33  63 CALM      29.82F
LUDINGTON      CLOUDY    49  29  45 S7        29.75F
MARSHALL       FAIR      41  33  72 CALM      29.81F
MOUNT PLEASANT FAIR      45  33  62 CALM      29.78F
MUSKEGON       FAIR      42  28  57 SE3       29.79F
SOUTH HAVEN    FAIR      48  25  40 CALM      29.80F
$$
MIZ016>042-270600-
NORTHERN LOWER MICHIGAN

CITY           SKY/WX    TMP DP  RH WIND       PRES   REMARKS
ALPENA         FAIR      34  32  92 CALM      29.79F
BEAVER ISLAND  CLOUDY    39  35  85 NW3       29.81S
BELLAIRE       MOCLDY    40  33  74 CALM      29.80F
CADILLAC       FAIR      38  29  69 N7        29.77F WCI  33
CHARLEVOIX     FAIR      39  32  76 NW8       29.84S WCI  34
FRANKFORT      FAIR      43  31  62 CALM      29.80F
GAYLORD        CLOUDY    39  32  76 CALM      29.78F
GRAYLING       CLOUDY    35  29  76 N3        29.78R
HARBOR SPRINGS FAIR      38  32  78 W3        29.79F
HOUGHTON LAKE  FAIR      38  33  82 CALM      29.78F
MANISTEE       CLOUDY    46  30  53 NW5       29.80R
OSCODA         FAIR      35  31  85 CALM      29.78S
PELLSTON       CLOUDY    42  33  70 SW6       29.79F
ROGERS CITY    FAIR      37  30  77 CALM      29.80F
TRAVERSE CITY  MOCLDY    45  33  63 NW9       29.80S
$$
MIZ007>008-015-270600-
EASTERN UPPER MICHIGAN

CITY           SKY/WX    TMP DP  RH WIND       PRES   REMARKS
KINROSS        CLOUDY    37  32  82 NW6       29.78  WCI  32
MACKINAC ISLAN CLOUDY    40  33  78 NW6       29.78F
NEWBERRY       CLOUDY    35  34  96 N7        29.79F WCI  29
MUNISING         N/A     34  33  96 NW12      29.84F WCI  25
$$
MIZ004>006-011>014-085-270600-
CENTRAL UPPER MICHIGAN

CITY           SKY/WX    TMP DP  RH WIND       PRES   REMARKS
MANISTIQUE     CLOUDY    37  35  94 N10       29.81S WCI  29
ESCANABA       CLOUDY    38  34  85 NW6       29.87R WCI  33
MENOMINEE      LGT RAIN  41  34  76 N13G18    29.86S
SAWYER-GWINN   FAIR      32  28  85 N8        29.85S WCI  25
$$
MIZ001>003-009>011-084-270600-
WESTERN UPPER MICHIGAN

CITY           SKY/WX    TMP DP  RH WIND       PRES   REMARKS
IRON MOUNTAIN  FAIR      36  31  82 NW6       29.85S WCI  31
HOUGHTON       FAIR      36  26  67 N7        29.87F WCI  30
COPPER HARBOR    N/A     35  30  82 N5        29.88S WCI  31
IRONWOOD       FAIR      29  28  96 CALM      29.88F
$$

ABBREVIATIONS USED IN REMARKS
   TC - TEMPERATURE IN CELSIUS
  WCI - WIND CHILL INDEX
   HX - HEAT INDEX
  VSB - VISIBILITY





USA.gov is the U.S. government's official web portal to all federal, state and local government web resources and services.